Starlink 5997

operational
NORAD ID: 56327 Int'l Des: 2023-058 Owner: SPXS Country: US Constellation: starlink
LEOCIRCULARRETROGRADESSO

About Starlink 5997

Description loading...

Live Position

Loading 3D Globe...

Upcoming Passes

Altitude History

Altitude vs Time

uPlot chart will show altitude changes over time

Two-Line Element Set

1 56327U 23058L 26036.26204482 .00000089 00000-0 11468-4 0 9997
2 56327 97.6044 38.4380 0002170 64.9464 295.1986 15.01259601153261
Epoch: Feb 5, 2026 • Age: 8 hours

Current Status

Altitude 591.1 km
Velocity 7.56 km/s
Sub-Earth Point -73.28°S, 79.94°E
Launch Date Apr 27, 2023
Age 2.7 years
Type internet

Technical Details

Classification Payload
Mass 300.00 kg
Dry Mass 260.00 kg
Total Mass 300.00 kg
Length 0.20 m
Diameter 2.80 m
Span 9.00 m
Shape Box + pan
Manufacturer SPXS
Bus Type Starlink
Phase Status In Orbit
Owner/State SPXS/US

Large Constellations

Loading constellations...